{"data":{"norad_id":53624,"epoch":"2026-09-20T17:15:20.114784Z","epoch_age_seconds":63425,"freshness":"FRESH","line1":"1 53624U 22104AN  26263.71898281  .00002277  00000+0  85084-4 0  9998","line2":"2 53624  53.1573  62.8085 0001255  82.5371 277.5773 15.31716425225400","mean_motion":15.31716425,"eccentricity":0.0001255,"inclination_deg":53.1573,"raan_deg":62.8085,"arg_perigee_deg":82.5371,"mean_anomaly_deg":277.5773,"bstar":8.5084e-5,"rev_number":22540,"period_min":94.01217983283,"perigee_km":469.83150567465,"apogee_km":471.55056151108,"semimajor_km":6848.8280335929,"source":"CELESTRAK","updated_at":"2026-09-21T09:00:32.942824Z"}}